STARLINK-1183, 45088

Orbit data source: Space-Track

STARLINK-1183, 45088 is a payload satellite owned by SpaceX/Seattle (US) in LEO that was launched on Wed, 29 Jan 2020 UTC via an FALCON 9 launch vehicle from the Air Force Eastern Test Range (AFETR). Payload-class satellites include a variety of spacecraft equipped with specific instruments for various scientific and technological missions. These include communications satellites like Starlink; space stations such as the ISS; scientific satellites like the Hubble; Earth observation satellites from companies like Planet Labs, Umbra, and HawkEye 360; GPS; miniature CubeSats for education and research; and military/defense satellites.

Loading next visibility...
Identifier
45088, 2020-006AW
Orbit
LEO
Country
Flag of USUS
Related business
Manufacturer
SpaceX/Seattle
Mission
Partially operational Commercial Communications
Bus & Motor
STARLINK, Unknown motor
Mass
260 kg wet, ~248 kg dry
Launch date (UTC)
2020-01-29 (7 years ago)
Launch vehicle
FALCON 9
Launch site
Air Force Eastern Test Range (AFETR)
Object type
Payload
Rocket body
Debris
Shape & HBR
Box + 1 Pan, 10.1 m
Radar Cross Section
13.562 m², Large (>1 m²)

Expand to show TLE details & history
Last TLE update: 10 hours ago

TLE from 10 hours ago
0 STARLINK-1183
1 45088U 20006AW  26263.14837872  .00041129  00000-0  91092-3 0  9993
2 45088  53.1535  51.6951 0000606  46.2478 313.8578 15.43399465366963
Epoch: 2026-09-20T03:33Z
TLE epoch observation values (Epoch: 2026-09-20T03:33:39.921Z)
Latitude
-0.00006°
Longitude
-0.768°
Altitude
436.703 km
Speed
7.651 km/s
True Right ascension
03h 26m 46s
True Declination
0° 00' 00"
Sunlit
Object was in full shadow at epoch
Visualization orbit readout
Latitude
Unknown
Longitude
Unknown
Altitude
Unknown
Speed
Unknown
Apparent Right ascension
Unknown
Apparent Declination
Unknown
Sunlit
N/A
Visualization observer readout
Local Sidereal Time
07:00:14
Azimuth
Unknown
Elevation
Unknown
Doppler factor
Unknown
Orbital elements
Apogee altitude
436.757 km
Perigee altitude
435.931 km
Semi-major axis
6,814.481 km
Eccentricity
0.00006
Inclination
53.1535°
RAAN
51.6951°
Arg. of periapsis
46.2478°
True anomaly
313.85279°
Mean anomaly
313.8578°
Eccentric anomaly
313.8553°
Mean motion
3.85828 °/min
Orbital period
93.31 mins
BSTAR
0.00091092
Loading maneuver chart data...
Computing Atmospheric mass density...

Documentation

Showing up to 5 results
|